Regional Weather Roundup
Issued by NWS

Home | Current Version | Previous Version | Text Only | Print | Product List | Glossary Off
Versions: 1 2 3 4 5 6 7 8 9 10 11 12 13 14 15 16 17 18 19 20 21 22 23 24 25 26 27 28 29 30 31 32 33 34 35 36 37 38 39 40 41 42 43 44 45 46 47 48 49 50

000
ASUS43 KMPX 100601
RWRMN
WEATHER ROUNDUP FOR MINNESOTA
NATIONAL WEATHER SERVICE TWIN CITIES/CHANHASSEN MN
100 AM CDT THU JUL 10 2014


NOTE: "FAIR" INDICATES FEW OR NO CLOUDS BELOW 12,000 FEET WITH NO
SIGNIFICANT WEATHER AND/OR OBSTRUCTIONS TO VISIBILITY. N/A MEANS
CURRENT SKY AND/OR WEATHER CONDITIONS ARE NOT AVAILABLE.

MNZ060>063-068>070-100700-
   Twin Cities Metro

CITY           SKY/WX    TMP DP  RH WIND       PRES   REMARKS
TWIN CITIES    CLEAR     65  56  72 SE6       30.02S
6HR MIN TEMP:  65; 6HR MAX TEMP:  79;

ST PAUL        CLEAR     63  58  83 SE3       30.03R
CRYSTAL        CLEAR     64  56  75 CALM      30.01
BLAINE         PTCLDY    63  59  88 CALM      30.02R
LAKEVILLE      CLEAR     57  55  94 CALM      30.03R
EDEN PRAIRIE   CLEAR     65  56  72 SE3       30.01
6HR MIN TEMP:  64; 6HR MAX TEMP:  78;

SOUTH ST PAUL  CLEAR     64  57  77 CALM      30.02S
LAKE ELMO      FAIR      59  57  94 CALM      30.04R
$$
MNZ001>005-007-008-013>017-022>024-027-028-100700-
   Northwest Minnesota

CITY           SKY/WX    TMP DP  RH WIND       PRES   REMARKS
BEMIDJI        CLEAR     51  49  92 CALM      30.02R
HALLOCK        CLEAR     59  52  77 SE7       29.96F
ROSEAU         CLEAR     54  48  82 CALM      29.99S
WARROAD        CLEAR     54  52  94 CALM      29.99S
THIEF RVR FALL CLEAR     57  52  82 CALM      29.99F
CROOKSTON      CLEAR     57  54  88 SE5       29.99S
FOSSTON        CLEAR     52  48  87 CALM      30.01S
DETROIT LAKES  CLEAR     59  54  82 CALM      30.02F
MOORHEAD       CLEAR     63  57  82 SE3       30.00S
PARK RAPIDS    CLEAR     55  52  89 CALM      30.02R
$$
MNZ006-009>011-018-025>026-100700-
   North Central Minnesota

CITY           SKY/WX    TMP DP  RH WIND       PRES   REMARKS
BAUDETTE       CLEAR     55  50  83 CALM      30.00
FLAG ISLAND    PTCLDY    63  54  72 W6        29.97S
INTL FALLS     CLEAR     48  47  96 CALM      30.00S
6HR MIN TEMP:  48; 6HR MAX TEMP:  71;

LONGVILLE      CLEAR     52  52 100 CALM      30.02S
GRAND RAPIDS   CLEAR     52  48  87 S3        30.03S
CRANE LAKE     PTCLDY    46  45  93 CALM      30.03S
ORR            CLEAR     54  50  87 CALM      30.00S
COOK           PTCLDY    50  48  93 CALM      30.03R
$$
MNZ012-019>021-037-100700-
   Northeast Minnesota

CITY           SKY/WX    TMP DP  RH WIND       PRES   REMARKS
DULUTH         MOCLDY    57  49  74 CALM      30.04R
6HR MIN TEMP:  56; 6HR MAX TEMP:  72;

ELY            CLEAR     48  45  87 CALM      30.04R
HIBBING        CLOUDY    54  51  90 CALM      30.03R
EVELETH          N/A    N/A N/A N/A CALM      30.04S FOG
DULUTH HARBOR  PTCLDY    57  55  94 NE3       30.04R
TWO HARBORS    CLEAR     48  43  81 CALM      30.02S
SILVER BAY     CLEAR     45  45 100 CALM      30.03R
GRAND MARAIS     N/A     43  39  86 CALM      30.03R
G MARAIS ARPRT PTCLDY    45  41  87 CALM      30.06R
$$
MNZ029>031-032-039>041-046>048-054>057-064-100700-
   West Central Minnesota

CITY           SKY/WX    TMP DP  RH WIND       PRES   REMARKS
FERGUS FALLS   CLEAR     63  52  67 E3        30.01S
WHEATON        CLEAR     55  52  88 SE6       30.02R
MORRIS         CLEAR     57  55  94 SE5       30.00S
ALEXANDRIA     CLEAR     60  54  80 CALM      30.03
ELBOW LAKE     FAIR      63  54  72 E5        30.01S
WADENA         CLEAR     54  50  87 CALM      30.02S
GLENWOOD       CLEAR     59  52  77 E5        30.03S
APPLETON       CLEAR     59  54  82 CALM      30.00S
BENSON         CLEAR     57  55  94 CALM      30.01S
ORTONVILLE     CLEAR     63  54  72 SE5       30.01R
MADISON        CLEAR     61  54  77 CALM      30.01S
WILLMAR        FAIR      59  54  82 CALM      30.03S
$$
MNZ033>034-036-042>043-049>051-058-059-100700-
   Central Minnesota

CITY           SKY/WX    TMP DP  RH WIND       PRES   REMARKS
ST CLOUD       PTCLDY    60  57  89 NE5       30.01S
6HR MIN TEMP:  59; 6HR MAX TEMP:  78;

SAUK CENTRE    FAIR      56  53  87 CALM      30.03S
PAYNESVILLE    CLEAR     51  50  97 CALM      30.03S
AITKIN         CLEAR     55  48  76 CALM      30.01S
PINE RIVER       N/A     54  52  94 CALM      30.05S
BRAINERD       CLEAR     60  53  77 CALM      30.02S
STAPLES        CLEAR     54  52  94 CALM      30.02S
LONG PRAIRIE   FAIR      52  50  93 CALM      30.03S
LITTLE FALLS   CLEAR     54  52  94 CALM      30.02S
LITCHFIELD       N/A     61  55  82 CALM      30.03S
BUFFALO        PTCLDY    62  56  80 CALM      30.03S
MAPLE LAKE     CLEAR     60  59  96 CALM      30.03R
$$
MNZ037-044-045-052-053-100700-
   East Central Minnesota

CITY           SKY/WX    TMP DP  RH WIND       PRES   REMARKS
PRINCETON      PTCLDY    59  57  94 CALM      30.03R
MORA           CLEAR     54  52  94 CALM      30.04S
CAMBRIDGE      PTCLDY    57  50  77 CALM      30.01R
RUSH CITY      MOCLDY    54  52  92 CALM      30.03R
MOOSE LAKE     PTCLDY    52  50  93 CALM      30.02R
HINCKLEY       FAIR      54  52  94 CALM      30.03R
CLOQUET        CLEAR     55  52  88 CALM      30.04S
MCGREGOR       CLEAR     54  54 100 CALM      30.03S
$$
MNZ071>073-080-081-089-090-097-098-100700-
   Southwest Minnesota

CITY           SKY/WX    TMP DP  RH WIND       PRES   REMARKS
MONTEVIDEO     CLEAR     61  54  77 S6        30.02S
GRANITE FALLS  CLEAR     62  53  71 E3        30.03S
CANBY          CLEAR     57  55  92 CALM      30.03R
MARSHALL       CLEAR     63  54  72 MISG      30.02R
REDWOOD FALLS  CLEAR     63  53  70 SE3       30.02R
OLIVIA         CLEAR     61  52  72 CALM      30.01S
PIPESTONE      CLEAR     63  54  72 SE5       30.03S
WINDOM         CLEAR     63  55  77 CALM      30.04S
WORTHINGTON    PTCLDY    64  55  72 SE5       30.05S
JACKSON        PTCLDY    63  54  72 S3        30.04S
TRACY          CLEAR     64  53  66 CALM      30.03R
SLAYTON        CLEAR     62  55  79 CALM      30.05R
$$
MNZ065>067-074>077-082>085-091>093-100700-
   South Central Minnesota

CITY           SKY/WX    TMP DP  RH WIND       PRES   REMARKS
MANKATO        PTCLDY    63  54  72 SE6       30.02S
NEW ULM        CLEAR     63  55  77 CALM      30.02S
ST JAMES       MOCLDY    64  55  72 CALM      30.03S
FAIRMONT       PTCLDY    63  54  72 CALM      30.03S
GLENCOE        CLEAR     62  54  75 CALM      30.02R
FARIBAULT      CLEAR     64  54  68 SE3       30.04R
OWATONNA       CLEAR     63  55  77 SE6       30.04R
WASECA         PTCLDY    59  50  72 SE6       30.05S
ALBERT LEA     CLEAR     63  57  82 SE6       30.04S
$$
MNZ078>079-086>088-094>096-100700-
   Southeast Minnesota

CITY           SKY/WX    TMP DP  RH WIND       PRES   REMARKS
ROCHESTER      CLEAR     61  56  83 S9        30.06S
6HR MIN TEMP:  60; 6HR MAX TEMP:  75;

RED WING       CLEAR     57  55  94 CALM      30.02S
STANTON        CLEAR     60  55  84 CALM      30.02R
DODGE CENTER   PTCLDY    63  57  82 S7        30.05R
WINONA         CLEAR     61  55  82 CALM      30.05R
AUSTIN         CLEAR     61  57  88 CALM      30.04S
PRESTON        CLEAR     63  56  77 SE6       30.07R
$$
ABBREVIATIONS USED IN REMARKS
   TC - TEMPERATURES IN CELSIUS
  WCI - WIND CHILL INDEX
   HX - HEAT INDEX
  VSB - VISIBILITY
$$


USA.gov is the U.S. government's official web portal to all federal, state and local government web resources and services.